Regional Weather Roundup
Issued by NWS Little Rock, AR

Home | Current Version | Previous Version | Graphics & Text | Print | Product List | Glossary On
Versions: 1 2 3 4 5 6 7 8 9 10 11 12 13 14 15 16 17 18 19 20 21 22 23 24 25 26 27
000
ASUS44 KLZK 300105
RWRLZK

WEATHER ROUNDUP FOR ARKANSAS
NATIONAL WEATHER SERVICE LITTLE ROCK AR
800 PM CDT SUN MAY 29 2016

NOTE: "FAIR" INDICATES FEW OR NO CLOUDS BELOW 12,000 FEET WITH NO
SIGNIFICANT WEATHER AND/OR OBSTRUCTIONS TO VISIBILITY.

ARZ001-003-010-029-300200-
NORTHWEST ARKANSAS

CITY           SKY/WX    TMP DP  RH WIND       PRES   REMARKS
FAYETTEVILLE   CLOUDY    73  63  70 CALM      30.09S
FORT SMITH     CLOUDY    81  65  58 E5        30.04R
HARRISON       CLOUDY    75  64  68 CALM      30.10R
BENTONVILLE    CLOUDY    77  61  57 SE6       30.09R
ROGERS           N/A     76  67  73 SE5       30.10S
SILOAM SPGS    CLOUDY    73  63  68 CALM      30.10R
HIGHFILL       CLOUDY    77  66  68 SE6       30.08S
$$

ARZ004-005-016-300200-
NORTH CENTRAL ARKANSAS

CITY           SKY/WX    TMP DP  RH WIND       PRES   REMARKS
BATESVILLE     CLOUDY    79  66  65 CALM      30.06S
FLIPPIN        CLEAR    N/A N/A N/A CALM      30.05S
MTN HOME       CLEAR     74  66  76 CALM      30.07S
$$

ARZ040-041-300200-
WEST CENTRAL ARKANSAS

CITY           SKY/WX    TMP DP  RH WIND       PRES   REMARKS
MENA           CLOUDY    72  70  94 CALM      30.07F
MOUNT IDA      CLOUDY    70  67  90 CALM      30.05S
$$

ARZ009-017-025-026-028-300200-
NORTHEAST ARKANSAS

CITY           SKY/WX    TMP DP  RH WIND       PRES   REMARKS
CORNING        LGT RAIN  81  72  74 CALM      30.05S
JONESBORO      MOCLDY    80  70  71 W3        30.05S
NEWPORT        CLOUDY    81  72  74 S3        30.06S HX  85
WALNUT RIDGE   CLOUDY    81  64  57 CALM      30.05S
BLYTHEVILLE    MOCLDY    81  70  69 VRB6      30.04S
$$

ARZ022-023-033-042-044-300200-
CENTRAL ARKANSAS

CITY           SKY/WX    TMP DP  RH WIND       PRES   REMARKS
LITTLE ROCK    CLOUDY    74  62  66 CALM      30.06R
N LITTLE ROCK    N/A     72  67  84 CALM      30.04R
JACKSONVILLE   CLOUDY    74  70  86 SE2       30.05S
SEARCY         CLOUDY    75  73  94 S5        30.07S
HOT SPRINGS    CLEAR     70  65  84 CALM      30.08R
RUSSELLVILLE   MOCLDY    77  70  79 CALM      30.05R
CLINTON        FAIR      77  73  88 CALM      30.07S
$$

ARZ036-300200-
EAST ARKANSAS

CITY           SKY/WX    TMP DP  RH WIND       PRES   REMARKS
WEST MEMPHIS   MOCLDY    81  70  69 CALM      30.05R
$$

ARZ050-053-066-070-073-300200-
SOUTHWEST ARKANSAS

CITY           SKY/WX    TMP DP  RH WIND       PRES   REMARKS
ARKADELPHIA    FAIR      75  65  71 NE3       30.06R
CAMDEN         CLOUDY    75  59  57 E7        30.04F
TEXARKANA      MOCLDY    76  63  64 E6        30.03S
EL DORADO      CLOUDY    74  63  68 E9        30.05S
DE QUEEN       CLOUDY    77  68  73 NE7       30.01S
$$

ARZ056-057-069-300200-
SOUTHEAST ARKANSAS

CITY           SKY/WX    TMP DP  RH WIND       PRES   REMARKS
PINE BLUFF     CLOUDY    71  63  75 E7        30.05F
STUTTGART      MOCLDY    73  64  73 SE8       30.05F
MONTICELLO     CLOUDY    69  64  84 NE6       30.07F

$$






USA.gov is the U.S. government's official web portal to all federal, state and local government web resources and services.